TimeCST,TemperatureF,Dew PointF,Humidity,Sea Level PressureIn,VisibilityMPH,Wind Direction,Wind SpeedMPH,Gust SpeedMPH,PrecipitationIn,Events,Conditions,WindDirDegrees,DateUTC
12:00 AM,40,38,92,29.94,,SE,8.1,,,,,140,2012-10-31 06:00:00
12:00 AM,40.3,38.5,93,29.94,-9999.0,SE,8.1,-,N/A,,Unknown,140,2012-10-31 06:00:00
1:00 AM,40.3,38.3,93,29.95,-9999.0,SW,3.5,-,N/A,,Unknown,220,2012-10-31 07:00:00
2:00 AM,42.1,39.9,92,29.96,-9999.0,WNW,12.7,-,N/A,,Unknown,300,2012-10-31 08:00:00
3:00 AM,38.8,38.5,99,29.99,-9999.0,NW,12.7,-,N/A,,Unknown,310,2012-10-31 09:00:00
4:00 AM,35.4,35.1,99,30.01,-9999.0,NW,16.1,-,N/A,,Unknown,320,2012-10-31 10:00:00
5:00 AM,33.4,32.9,98,30.04,-9999.0,NW,20.7,-,N/A,,Unknown,320,2012-10-31 11:00:00
6:00 AM,33,33,98,30.08,,NNW,19.6,,,,,340,2012-10-31 12:00:00
6:00 AM,33.4,31.3,92,30.08,-9999.0,NNW,19.6,27.6,N/A,,Unknown,340,2012-10-31 12:00:00
7:00 AM,33.6,32.9,97,30.11,-9999.0,NNW,16.1,-,N/A,,Unknown,340,2012-10-31 13:00:00
8:00 AM,33.6,31.5,92,30.12,-9999.0,North,13.8,-,N/A,,Unknown,350,2012-10-31 14:00:00
9:00 AM,33.8,31.5,91,30.15,-9999.0,North,12.7,-,N/A,,Unknown,350,2012-10-31 15:00:00
10:00 AM,33.3,31.6,94,30.17,-9999.0,North,17.3,-,N/A,,Unknown,350,2012-10-31 16:00:00
11:00 AM,34.0,31.1,89,30.20,-9999.0,North,15.0,20.7,N/A,,Unknown,350,2012-10-31 17:00:00
12:00 PM,34,30,81,30.20,,North,13.8,,,,,350,2012-10-31 18:00:00
12:00 PM,34.0,30.4,87,30.20,-9999.0,North,13.8,-,N/A,,Unknown,350,2012-10-31 18:00:00
1:00 PM,33.6,30.4,88,30.20,-9999.0,North,13.8,-,N/A,,Unknown,350,2012-10-31 19:00:00
2:00 PM,33.3,29.1,85,30.21,-9999.0,North,12.7,-,N/A,,Unknown,350,2012-10-31 20:00:00
3:00 PM,31.1,28.0,88,30.23,-9999.0,North,11.5,-,N/A,,Unknown,350,2012-10-31 21:00:00
4:00 PM,29.8,26.2,86,30.25,-9999.0,NNW,11.5,-,N/A,,Unknown,340,2012-10-31 22:00:00
5:00 PM,28.6,24.6,85,30.25,-9999.0,North,9.2,-,N/A,,Unknown,360,2012-10-31 23:00:00
6:00 PM,28,24,79,30.26,,NNE,8.1,,,,,20,2012-11-01 00:00:00
6:00 PM,27.5,24.1,87,30.26,-9999.0,NNE,8.1,-,N/A,,Unknown,20,2012-11-01 00:00:00
7:00 PM,26.2,22.6,86,30.27,-9999.0,NNE,9.2,-,N/A,,Unknown,30,2012-11-01 01:00:00
8:00 PM,26.1,22.8,88,30.26,-9999.0,North,9.2,-,N/A,,Unknown,360,2012-11-01 02:00:00
9:00 PM,25.5,22.5,88,30.26,-9999.0,NE,9.2,-,N/A,,Unknown,40,2012-11-01 03:00:00
10:00 PM,25.0,22.1,89,30.25,-9999.0,ENE,8.1,-,N/A,,Unknown,60,2012-11-01 04:00:00
11:00 PM,24.4,21.4,88,30.26,-9999.0,ENE,6.9,-,N/A,,Unknown,70,2012-11-01 05:00:00